Hourly Data Report for November 03, 2017

TORONTO CITY
ONTARIO

43°40'00.000" N
79°24'00.000" W
112.50 m
6158355
71508
XTO

Download Data

Hourly Data (November 2017)
Hourly Data Report for November 3, 2017
TIME
LST
Temp Definition
°C
Dew Point Definition
°C
Rel Hum Definition
%
Precip. Amount Definition
mm

Wind Dir Definition
10's deg

Wind Spd Definition
km/h
Visibility Definition
km
Stn Press Definition
kPa
Hmdx Definition


Wind Chill Definition


Weather Definition


00:00 12.8 10.1 83 0.2 LegendMM LegendMM   100.00     LegendNANA
01:00 11.7 9.4 86 2.2 LegendMM LegendMM   99.98     LegendNANA
02:00 11.4 9.3 87 0.4 LegendMM LegendMM   99.97     LegendNANA
03:00 10.7 8.2 84 0.0 LegendMM LegendMM   100.11     LegendNANA
04:00 10.1 7.0 81 0.0 LegendMM LegendMM   100.19     LegendNANA
05:00 9.7 6.9 83 0.5 LegendMM LegendMM   100.28     LegendNANA
06:00 9.4 7.2 86 0.5 LegendMM LegendMM   100.34     LegendNANA
07:00 9.2 6.8 85 0.0 LegendMM LegendMM   100.41     LegendNANA
08:00 9.3 6.6 83 0.0 LegendMM LegendMM   100.52     LegendNANA
09:00 10.1 5.9 75 0.0 LegendMM LegendMM   100.59     LegendNANA
10:00 10.6 4.4 66 0.0 LegendMM LegendMM   100.68     LegendNANA
11:00 10.6 2.2 56 0.0 LegendMM LegendMM   100.75     LegendNANA
12:00 11.0 0.7 49 0.0 LegendMM LegendMM   100.79     LegendNANA
13:00 11.7 2.5 53 0.0 LegendMM LegendMM   100.83     LegendNANA
14:00 10.6 0.5 50 0.0 LegendMM LegendMM   100.90     LegendNANA
15:00 10.0 -0.5 48 0.0 LegendMM LegendMM   101.00     LegendNANA
16:00 9.6 -0.5 49 0.0 LegendMM LegendMM   101.06     LegendNANA
17:00 8.7 -0.5 52 0.0 LegendMM LegendMM   101.19     LegendNANA
18:00 7.6 -0.9 55 0.0 LegendMM LegendMM   101.27     LegendNANA
19:00 7.1 -0.8 57 0.0 LegendMM LegendMM   101.32     LegendNANA
20:00 7.5 -0.7 56 0.0 LegendMM LegendMM   101.38     LegendNANA
21:00 6.5 -0.6 61 0.0 LegendMM LegendMM   101.41     LegendNANA
22:00 5.6 -0.2 66 0.0 LegendMM LegendMM   101.45     LegendNANA
23:00 5.9 -0.1 65 0.0 LegendMM LegendMM   101.45     LegendNANA

Notes on Data Quality.

Legend

  • E = Estimated
  • M = Missing
  • NA = Not Available*
  • [empty] = Indicates an unobserved value
Date modified: